OPS 4682 DEB, 38398

Orbit data source: Space-Track

OPS 4682 DEB, 38398 is space debris in LEO originally from a launch on Sat, 03 Apr 1965 UTC launched from the Air Force Western Test Range (AFWTR). Debris objects in space refer to the collection of defunct objects orbiting the Earth. Examples of debris include non-operational satellites, rocket bodies, and fragments generated from explosions, collisions, or faulty payload assembly.

Loading next visibility...
Identifier
38398, 1965-027DB
Orbit
LEO
Country
Flag of USUS
Related business
Manufacturer
Unknown
Mission
Spacecraft
Bus & Motor
Unknown
Mass
Unknown
Launch date (UTC)
1965-04-03 (61 years ago)
Launch vehicle
Unknown
Launch site
Air Force Western Test Range (AFWTR)
Object type
Payload
Rocket body
Debris
Shape & HBR
Unknown shape, 0.1 m
Radar Cross Section
Medium (>0.1 m² and <1 m²)

Expand to show TLE details & history
Last TLE update: 2 days ago

TLE from 2 days ago
0 OPS 4682 DEB
1 38398U 65027DB  26173.98001305 -.00000214  00000-0 -76782-3 0  9998
2 38398  90.2640  17.9868 0020100  93.5442 266.7978 12.97153007664009
Epoch: 2026-06-22T23:31Z
TLE epoch observation values (Epoch: 2026-06-22T23:31:13.127Z)
Latitude
-0°
Longitude
114.02395°
Altitude
1,277.031 km
Speed
7.217 km/s
True Right ascension
01h 11m 56s
True Declination
0° 00' 00"
Sunlit
Object was in daylight at epoch
Visualization orbit readout
Latitude
Unknown
Longitude
Unknown
Altitude
Unknown
Speed
Unknown
Apparent Right ascension
Unknown
Apparent Declination
Unknown
Sunlit
N/A
Visualization observer readout
Local Sidereal Time
01:49:00
Azimuth
Unknown
Elevation
Unknown
Doppler factor
Unknown
Orbital elements
Apogee altitude
1,285.767 km
Perigee altitude
1,255.019 km
Semi-major axis
7,648.53 km
Eccentricity
0.00201
Inclination
90.264°
RAAN
17.9868°
Arg. of periapsis
93.5442°
True anomaly
266.56786°
Mean anomaly
266.7978°
Eccentric anomaly
266.68283°
Mean motion
3.24471 °/min
Orbital period
110.95 mins
BSTAR
-0.00076782
Loading maneuver chart data...
Computing Atmospheric mass density...
Loading historical data...
Loading historical data...
Loading historical data...
Loading historical data...
Loading historical data...
Loading historical data...
Loading historical data...

Documentation

Showing up to 5 results
|